Weather History for KHSB - June, 2013

Change the Weather History Date:

Wednesday, June 12, 2013

  Actual Average (KMWA) Record (KMWA)
Temperature  
Mean Temperature 84 °F -  
Max Temperature 92 °F 83 °F 109 °F (2000)
Min Temperature 75 °F 60 °F 33 °F (1997)
Cooling Degree Days 18    
Growing Degree Days 34 (Base 50)    
Moisture  
Dew Point 72 °F    
Average Humidity 69    
Maximum Humidity 91    
Minimum Humidity 46    
Precipitation  
Precipitation 0.00 in - - ()
Sea Level Pressure  
Sea Level Pressure 29.91 in    
Wind  
Wind Speed 7 mph (SW)    
Max Wind Speed 21 mph    
Max Gust Speed 31 mph    
Visibility 10 miles    
Events      
Averages and records for this station are not official NWS values.
T = Trace of Precipitation, MM = Missing Value Source: NWS Daily Summary

Daily Weather History Graph

Daily Weather History Graph

Search for Another Location

Airport or City:

Trip Planner

Search our weather history database for the weather conditions in past years. The results will help you decide how hot, cold, wet, or windy it might be!

Date:

Astronomy

Jun. 12, 2013 Rise Set
Actual Time 5:31 AM CDT 8:16 PM CDT
Civil Twilight 5:00 AM CDT 8:48 PM CDT
Nautical Twilight 4:21 AM CDT 9:27 PM CDT
Astronomical Twilight 3:37 AM CDT 10:11 PM CDT
Moon 9:07 AM CDT (6/12) 10:56 PM CDT (6/12)
Length of Visible Light 15h 47m
Length of Day
14h 45m
Waxing Crescent, 14% of the Moon is Illuminated
Jun 12
Waxing Crescent
Jun 16
First Quarter
Jun 23
Full
Jun 29
Last Quarter
Jul 8
New

Hourly Weather History & Observations

Time (CDT) Temp. Heat Index Dew Point Humidity Pressure Visibility Wind Dir Wind Speed Gust Speed Precip Events Conditions
12:15 AM 79.2 °F - 74.5 °F 86% 29.94 in 10.0 mi SSW 4.6 mph - N/A   Clear
12:35 AM 78.4 °F - 74.5 °F 88% 29.93 in 10.0 mi SW 4.6 mph - N/A   Clear
12:55 AM 77.2 °F - 74.3 °F 91% 29.93 in 10.0 mi WSW 3.5 mph - N/A   Clear
1:15 AM 77.9 °F - 73.9 °F 88% 29.93 in 10.0 mi SSW 4.6 mph - N/A   Clear
1:35 AM 78.3 °F - 73.8 °F 86% 29.93 in 10.0 mi SW 4.6 mph - N/A   Clear
1:55 AM 78.3 °F - 73.8 °F 86% 29.92 in 10.0 mi SSW 4.6 mph - N/A   Clear
2:15 AM 77.9 °F - 73.8 °F 87% 29.92 in 10.0 mi SW 3.5 mph - N/A   Clear
2:35 AM 77.4 °F - 73.4 °F 88% 29.93 in 10.0 mi Calm Calm - N/A   Clear
2:55 AM 77.2 °F - 73.0 °F 87% 29.93 in 10.0 mi Calm Calm - N/A   Clear
3:15 AM 78.3 °F - 72.3 °F 82% 29.93 in 10.0 mi WSW 3.5 mph - N/A   Clear
3:35 AM 77.9 °F - 72.5 °F 83% 29.93 in 10.0 mi SW 3.5 mph - N/A   Clear
3:55 AM 76.8 °F - 72.7 °F 87% 29.93 in 10.0 mi SSW 3.5 mph - N/A   Clear
4:15 AM 77.0 °F - 72.5 °F 86% 29.94 in 10.0 mi SW 4.6 mph - N/A   Clear
4:35 AM 77.0 °F - 72.5 °F 86% 29.94 in 10.0 mi Calm Calm - N/A   Clear
4:55 AM 76.3 °F - 72.5 °F 88% 29.94 in 10.0 mi SSW 3.5 mph - N/A   Clear
5:15 AM 76.3 °F - 72.5 °F 88% 29.95 in 10.0 mi Calm Calm - N/A   Clear
5:35 AM 76.1 °F - 72.7 °F 89% 29.96 in 10.0 mi SSW 4.6 mph - N/A   Clear
5:55 AM 76.1 °F - 72.5 °F 89% 29.96 in 10.0 mi SSW 3.5 mph - N/A   Clear
6:15 AM 76.1 °F - 72.5 °F 89% 29.97 in 10.0 mi SSW 3.5 mph - N/A   Clear
6:35 AM 75.7 °F - 72.7 °F 90% 29.97 in 10.0 mi SSW 3.5 mph - N/A   Clear
6:55 AM 75.7 °F - 72.9 °F 91% 29.98 in 10.0 mi SSW 3.5 mph - N/A   Clear
7:15 AM 77.0 °F - 73.4 °F 89% 29.99 in 10.0 mi SW 4.6 mph - N/A   Clear
7:35 AM 78.4 °F - 73.2 °F 84% 29.99 in 10.0 mi SW 4.6 mph - N/A   Clear
7:55 AM 79.2 °F - 73.4 °F 82% 30.00 in 10.0 mi SW 5.8 mph - N/A   Clear
8:15 AM 80.1 °F 84.4 °F 73.4 °F 80% 30.01 in 10.0 mi WSW 8.1 mph - N/A   Clear
8:35 AM 80.4 °F 85.0 °F 73.4 °F 79% 30.02 in 10.0 mi WSW 6.9 mph - N/A   Clear
8:55 AM 80.6 °F 85.2 °F 73.2 °F 78% 30.02 in 10.0 mi WSW 6.9 mph - N/A   Clear
9:15 AM 81.5 °F 86.9 °F 73.8 °F 77% 30.02 in 10.0 mi WSW 8.1 mph - N/A   Clear
9:35 AM 82.8 °F 89.2 °F 74.3 °F 75% 30.01 in 10.0 mi WSW 9.2 mph - N/A   Clear
9:55 AM 84.4 °F 92.7 °F 75.4 °F 74% 30.01 in 10.0 mi WSW 6.9 mph - N/A   Clear
10:15 AM 84.2 °F 91.6 °F 74.1 °F 72% 30.00 in 10.0 mi WSW 8.1 mph - N/A   Clear
10:35 AM 85.3 °F 93.7 °F 74.8 °F 71% 30.00 in 10.0 mi SW 8.1 mph - N/A   Clear
10:55 AM 86.0 °F 95.1 °F 75.0 °F 70% 29.99 in 10.0 mi SW 9.2 mph - N/A   Clear
11:15 AM 87.1 °F 96.3 °F 75.0 °F 67% 29.99 in 10.0 mi SW 10.4 mph - N/A   Clear
11:35 AM 87.8 °F 97.1 °F 74.8 °F 65% 29.99 in 10.0 mi SW 10.4 mph - N/A   Clear
11:55 AM 88.7 °F 98.2 °F 74.8 °F 63% 29.98 in 10.0 mi SW 11.5 mph - N/A   Clear
12:15 PM 89.1 °F 98.5 °F 74.7 °F 62% 29.97 in 10.0 mi SSW 8.1 mph - N/A   Clear
12:35 PM 89.1 °F 97.5 °F 73.6 °F 60% 29.96 in 10.0 mi SW 9.2 mph - N/A   Clear
12:55 PM 90.1 °F 99.4 °F 73.9 °F 59% 29.94 in 10.0 mi SW 10.4 mph 19.6 mph N/A   Clear
1:15 PM 90.5 °F 98.6 °F 72.7 °F 56% 29.94 in 10.0 mi SSW 11.5 mph 18.4 mph N/A   Clear
1:35 PM 90.7 °F 99.6 °F 73.4 °F 57% 29.93 in 10.0 mi SSW 12.7 mph - N/A   Clear
1:55 PM 91.4 °F 100.7 °F 73.9 °F 56% 29.92 in 10.0 mi SSW 12.7 mph 19.6 mph N/A   Clear
2:15 PM 91.6 °F 101.1 °F 73.8 °F 56% 29.91 in 10.0 mi SSW 12.7 mph - N/A   Clear
2:35 PM 91.8 °F 100.3 °F 72.9 °F 54% 29.89 in 10.0 mi SSW 17.3 mph 23.0 mph N/A   Clear
2:55 PM 92.1 °F 99.4 °F 71.8 °F 51% 29.88 in 10.0 mi SSW 17.3 mph 24.2 mph N/A   Clear
3:15 PM 92.1 °F 98.8 °F 71.1 °F 50% 29.87 in 10.0 mi SSW 17.3 mph 25.3 mph N/A   Clear
3:35 PM 92.1 °F 98.3 °F 70.7 °F 49% 29.86 in 10.0 mi SSW 20.7 mph 26.5 mph N/A   Clear
3:55 PM 91.9 °F 97.4 °F 70.0 °F 48% 29.85 in 10.0 mi SSW 19.6 mph 31.1 mph N/A   Clear
4:15 PM 92.3 °F 98.1 °F 69.8 °F 48% 29.84 in 10.0 mi SSW 20.7 mph 29.9 mph N/A   Clear
4:35 PM 92.3 °F 97.6 °F 69.3 °F 47% 29.84 in 10.0 mi SSW 17.3 mph 27.6 mph N/A   Clear
4:55 PM 92.3 °F 98.1 °F 70.0 °F 48% 29.83 in 10.0 mi SSW 20.7 mph 25.3 mph N/A   Clear
5:15 PM 91.8 °F 96.0 °F 68.2 °F 46% 29.83 in 10.0 mi SW 20.7 mph 27.6 mph N/A   Clear
5:35 PM 91.4 °F 95.4 °F 67.8 °F 46% 29.82 in 10.0 mi SW 16.1 mph 27.6 mph N/A   Clear
5:55 PM 91.0 °F 95.6 °F 69.1 °F 48% 29.82 in 10.0 mi SW 12.7 mph 18.4 mph N/A   Clear
6:15 PM 90.5 °F 95.5 °F 69.8 °F 50% 29.82 in 10.0 mi SW 12.7 mph 18.4 mph N/A   Clear
6:35 PM 90.1 °F 94.4 °F 68.9 °F 49% 29.82 in 10.0 mi SW 17.3 mph 24.2 mph N/A   Clear
6:55 PM 89.8 °F 93.8 °F 68.5 °F 49% 29.82 in 10.0 mi SW 12.7 mph 21.9 mph N/A   Clear
7:15 PM 88.7 °F 92.6 °F 68.7 °F 51% 29.82 in 10.0 mi SW 10.4 mph 18.4 mph N/A   Clear
7:35 PM 87.8 °F 91.8 °F 68.9 °F 53% 29.82 in 10.0 mi SW 11.5 mph 18.4 mph N/A   Clear
7:55 PM 87.3 °F 91.2 °F 68.9 °F 54% 29.82 in 10.0 mi SW 10.4 mph 17.3 mph N/A   Clear
8:15 PM 86.2 °F 90.4 °F 69.1 °F 57% 29.82 in 10.0 mi SW 10.4 mph - N/A   Clear
8:35 PM 85.5 °F 89.4 °F 69.3 °F 58% 29.81 in 10.0 mi SW 8.1 mph - N/A   Clear
8:55 PM 85.1 °F 89.1 °F 69.4 °F 59% 29.81 in 10.0 mi SW 9.2 mph - N/A   Clear
9:15 PM 85.1 °F 89.4 °F 69.8 °F 60% 29.81 in 10.0 mi SW 10.4 mph - N/A   Clear
9:35 PM 84.7 °F 89.1 °F 69.8 °F 61% 29.81 in 10.0 mi SW 11.5 mph - N/A   Clear
9:55 PM 84.6 °F 88.8 °F 70.0 °F 61% 29.81 in 10.0 mi SW 11.5 mph - N/A   Clear
10:15 PM 84.4 °F 88.7 °F 70.2 °F 62% 29.81 in 10.0 mi SW 13.8 mph 18.4 mph N/A   Clear
10:35 PM 84.4 °F 89.0 °F 70.7 °F 63% 29.81 in 10.0 mi SW 13.8 mph - N/A   Clear
10:55 PM 84.4 °F 89.0 °F 70.7 °F 63% 29.81 in 10.0 mi SW 13.8 mph 23.0 mph N/A   Clear
11:15 PM 84.4 °F 89.0 °F 70.3 °F 63% 29.80 in 10.0 mi SW 17.3 mph 24.2 mph N/A   Clear
11:35 PM 84.6 °F 88.8 °F 70.0 °F 61% 29.80 in 10.0 mi SW 13.8 mph 25.3 mph N/A   Scattered Clouds
11:55 PM 84.6 °F 88.8 °F 69.8 °F 61% 29.80 in 10.0 mi WSW 15.0 mph 21.9 mph N/A   Scattered Clouds